Vertical_Velocity
0 0 1 -1 -2 -1 0 0 1 1 1 -1 0 0 -0 1 -1 -1 -0 -0 0 0 -0 -1 2 -2 -1 0 0 -2 -0 0 1 -0 4 3 0 0 0 1 0 0 1 -3 3 0 -3 -1 -2
-2 3 1 -1 -3 0 1 1 1 0 -0 -0 -1 -1 -1 -0 -1 -1 -1 -1 -0 -0 -1 -0 -2 -1 -0 1 -2 -1 1 1 2 1 -0 -0 -1 0 -1 1 -1 0 5 -2 -1 8 11 9 1
-1 -1 0 -1 -1 -0 1 1 2 -0 -1 -1 -0 -1 1 -1 1 -0 -1 -0 -1 -0 -1 -1 -1 1 1 -1 -1 -0 -1 1 1 1 -0 -2 1 0 1 -0 1 1 -0 -0 -2 3 4 -2 1
1 2 -1 -0 -1 0 1 0 3 -1 -1 -0 0 -0 0 -0 0 -0 -0 -2 -1 -1 0 0 -0 -0 0 -0 -0 0 2 1 -2 1 0 3 0 3 -0 0 -3 -0 -1 -0 0 2 6 -0 2
-0 1 -2 1 1 0 -1 -0 1 -0 -1 -2 -0 -2 -0 -1 0 0 -0 -1 0 0 1 0 -0 -0 -3 0 -1 1 -3 5 -1 -2 1 1 -0 -0 -1 1 -0 3 -4 -4 1 4 -5 2 1
-0 -1 6 3 3 -1 -2 0 1 -1 0 -2 0 -1 -0 -1 -1 0 0 -0 0 -1 1 -0 -1 -0 -1 -2 -2 -1 2 -0 -0 1 -1 0 -0 0 -0 -1 -1 1 -1 2 2 -5 1 1 1
-1 -1 6 3 2 0 -2 0 1 1 -0 -0 0 -2 -0 -0 0 -1 1 0 -1 -1 -1 0 -0 -1 -2 -2 -1 -0 -1 -1 -3 0 0 -0 -0 -0 -2 -2 -1 0 -0 -0 -3 2 -1 -1 0
-1 1 5 2 2 -1 -2 -0 -0 0 -0 0 -1 -1 -1 -0 -2 -3 1 -1 -1 -1 -0 -1 1 1 1 3 1 -5 -4 1 -2 -3 -4 -2 -1 -1 -1 1 1 -1 2 -0 0 -0 -1 1 -1
0 3 1 3 5 5 -2 -0 -0 1 -1 0 -2 -1 -1 -1 -2 -2 1 -0 -2 -1 -1 2 1 0 1 -1 -4 -2 8 0 1 -2 -1 0 -3 -2 -1 -0 -1 0 0 -1 1 0 1 -1 -1
1 3 7 0 -0 -1 -2 -0 1 -0 -1 0 -1 -2 -1 -0 -2 -3 -0 -0 -1 -0 0 -0 1 3 4 2 1 -1 10 -4 -0 1 0 -1 -1 0 -0 1 1 -1 1 0 -1 0 -0 -1 1
-0 4 2 2 0 1 1 1 -0 -0 -0 -0 1 -1 -1 1 -1 -1 0 0 -1 0 1 1 4 0 0 -1 -2 -0 -0 -3 -1 -1 -1 -0 -1 -0 1 0 -1 -0 -1 -0 -0 1 -1 -0 1
1 -1 1 2 -0 -5 -0 1 -1 -0 1 -0 -1 -1 -1 -1 -1 -0 0 0 -1 -1 -0 0 1 1 1 -1 -3 -1 2 -1 0 -1 -0 -0 -0 -0 1 0 -0 -2 1 -0 -0 -1 -2 0 -1
-1 -1 -0 1 -1 6 -1 5 -0 -0 3 -1 -0 -1 -1 -1 -0 -1 -0 0 -0 -1 -1 2 1 -0 -0 -1 -3 -1 1 -1 -1 -0 -1 -1 -0 -0 -1 -1 -1 0 -0 -0 0 -1 -3 -2 -2
1 1 0 -0 -1 0 6 3 1 -5 0 2 -1 -1 -1 -0 -0 -0 -1 -1 -1 -0 -1 1 1 0 0 -1 -2 0 -0 -2 -2 -1 -1 -1 -2 -3 -1 -2 -3 -1 -1 -1 1 -1 -2 -3 -2
0 -1 -0 0 1 1 -3 14 -1 3 -5 2 -1 2 -2 -2 -1 0 1 1 0 -0 -2 0 1 -0 -2 -0 -2 -0 -0 0 0 0 -0 -1 -0 -0 -1 -1 -1 -1 -1 0 -1 -1 -2 -0 -0
-0 -1 3 -1 0 1 5 3 6 7 5 2 1 1 -1 -1 -1 -1 1 0 -0 -1 -2 -0 1 0 -0 -1 -1 -0 -1 -1 -1 -1 0 1 0 -0 -0 -1 -0 0 -1 -1 -1 -1 -1 -0 1
1 3 -0 -0 -0 0 0 8 -0 2 15 -2 1 -2 1 -1 -1 -1 -1 1 1 -1 -2 0 0 -1 -2 -2 -0 -0 0 -1 -0 0 -1 -0 -0 -0 -0 -1 -0 -2 -2 -1 -1 -2 -1 -1 -1
-1 -0 -1 6 -1 1 -0 3 -1 -4 3 11 1 -4 2 -1 -1 -1 -2 2 0 -0 -1 2 4 -0 -1 -2 -2 -0 -1 -1 0 0 -0 -1 2 0 -1 -0 -1 -2 -1 -1 -2 -1 -2 -1 -0
2 -1 -2 -0 6 -1 -0 2 2 1 -0 3 -3 0 1 1 -2 -1 -2 0 1 0 -0 -2 0 5 -0 -2 -2 0 1 1 -1 -0 -0 -3 3 1 0 -1 0 -2 -2 -2 -0 -2 -2 -1 -1
1 -1 0 1 -2 -1 -1 0 1 1 0 4 6 -4 -0 2 -1 -2 1 1 1 -1 -1 1 0 0 1 1 -0 0 -1 -2 -0 -1 -5 -0 -2 -5 1 1 -1 -0 -3 -2 -2 -1 0 -1 -2
2 1 -1 -2 -2 -2 -3 1 -0 2 -0 7 2 -0 3 -0 -1 -1 0 1 1 -1 -1 -1 -2 -1 0 -1 -2 1 -2 1 0 0 -1 0 -0 -1 -0 -2 -2 -1 -2 -3 -2 -3 -2 -1 -2
3 0 0 -1 1 1 -1 -0 -2 0 1 0 -4 1 3 -3 -1 1 -2 1 3 -1 -0 -3 -0 -4 -2 1 -0 -2 -1 0 -0 -0 0 -2 -1 1 -1 -2 -2 -2 -1 -1 -0 -3 -4 -2 -1
5 -1 -1 -2 -1 -1 -1 -0 4 -1 -0 -1 -3 2 2 -1 -1 -0 -1 -1 2 2 -1 1 -3 -1 1 3 1 -2 -3 -2 -1 -1 -1 1 0 1 -1 -0 0 0 -1 -1 -0 1 0 -0 -0
-7 -4 -2 -1 -1 2 -2 0 5 -1 -2 0 -0 -5 -0 0 -2 -2 -0 -1 -0 2 -0 0 -1 0 -3 0 -1 -0 -0 -2 -1 -1 -0 1 1 1 -0 0 -2 -1 0 -1 -1 0 -1 -0 0
0 -0 -0 2 -1 1 -1 2 -0 2 0 1 0 -0 -1 -0 -2 -2 -0 2 3 0 1 -2 -1 -2 0 2 1 0 0 -1 -2 -1 -2 -2 -1 -1 -2 -0 -0 -1 0 1 -1 -1 0 -1 -1
-1 -1 2 -3 11 5 -1 6 -4 0 4 1 3 2 1 -1 -1 -1 -0 0 2 -0 2 2 -0 -2 -2 -0 1 1 0 -1 1 1 0 -4 -1 -0 0 2 0 0 0 -1 -1 -1 -0 -1 -1
2 -2 5 8 -5 3 2 -1 -2 -3 0 0 2 3 2 1 -1 3 -1 -1 1 3 -2 -0 2 -1 -0 -1 -1 2 1 -1 2 0 -0 1 -1 -2 -4 1 1 0 1 0 -0 -0 -1 -1 -1
-3 1 0 -5 6 7 13 -4 16 0 1 0 2 -1 2 3 1 -2 -1 -2 -0 -0 -0 -0 0 -0 -1 -0 -1 -1 -0 1 -1 -0 -0 -1 1 2 0 -2 0 -0 -1 -1 -2 -1 1 0 0
-2 -1 -6 10 -7 7 22 20 -4 2 1 2 2 1 -0 2 7 2 -0 -1 1 -3 1 0 -0 -0 -1 -1 -0 0 1 1 0 -0 1 -1 -2 -1 -0 -0 -3 -3 -0 0 -1 -0 -0 0 -0
-18 43 -8 -3 -2 8 18 4 -5 0 -0 4 3 0 -1 17 9 0 2 -2 -3 0 -1 3 0 1 -0 -0 0 -1 1 2 1 1 2 1 2 0 0 -1 -1 -0 -1 -0 -0 0 -1 1 1
Height
5887 5886 5886 5886 5889 5888 5889 5889 5887 5887 5888 5887 5888 5888 5888 5888 5887 5890 5887 5887 5887 5887 5887 5888 5888 5888 5888 5888 5888 5891 5893 5894 5895 5897 5899 5900 5902 5903 5905 5906 5908 5909 5909 5910 5911 5912 5911 5912 5912
5887 5887 5887 5887 5889 5890 5891 5891 5889 5889 5889 5888 5888 5888 5889 5890 5889 5889 5889 5888 5888 5888 5889 5889 5890 5890 5890 5890 5891 5892 5894 5895 5897 5900 5900 5901 5904 5904 5907 5908 5909 5910 5912 5913 5913 5912 5911 5914 5914
5886 5886 5888 5887 5889 5891 5892 5892 5890 5890 5890 5890 5889 5889 5889 5890 5890 5890 5890 5890 5889 5890 5890 5890 5891 5892 5892 5892 5893 5894 5895 5897 5898 5900 5902 5903 5905 5906 5908 5909 5911 5912 5913 5914 5915 5913 5914 5918 5918
5886 5887 5888 5888 5890 5892 5892 5892 5892 5891 5891 5891 5890 5890 5891 5891 5891 5890 5890 5891 5890 5890 5891 5892 5892 5892 5892 5893 5894 5895 5898 5899 5901 5902 5903 5904 5906 5907 5910 5912 5913 5914 5915 5916 5917 5918 5919 5921 5922
5887 5887 5888 5889 5891 5892 5893 5893 5892 5892 5892 5891 5891 5891 5891 5891 5891 5891 5891 5891 5891 5891 5892 5892 5892 5893 5893 5894 5895 5896 5898 5900 5901 5902 5904 5906 5908 5910 5912 5915 5915 5915 5916 5917 5919 5919 5920 5923 5924
5889 5889 5891 5891 5892 5893 5894 5894 5893 5893 5893 5893 5892 5892 5891 5891 5892 5892 5892 5891 5891 5891 5892 5892 5892 5893 5894 5894 5896 5897 5899 5901 5903 5905 5906 5908 5910 5912 5915 5916 5916 5917 5918 5917 5920 5922 5924 5925 5927
5889 5890 5892 5893 5893 5894 5894 5895 5895 5894 5894 5894 5893 5892 5892 5892 5891 5891 5892 5891 5891 5892 5892 5893 5893 5894 5895 5896 5897 5898 5900 5903 5904 5906 5908 5910 5912 5915 5916 5918 5919 5920 5921 5921 5923 5925 5926 5928 5930
5889 5890 5891 5893 5892 5893 5895 5895 5895 5894 5895 5895 5894 5893 5893 5892 5892 5891 5892 5891 5891 5892 5893 5894 5895 5895 5895 5896 5897 5899 5900 5903 5905 5907 5910 5912 5914 5916 5917 5919 5921 5922 5923 5924 5927 5928 5929 5930 5933
5890 5890 5890 5891 5891 5891 5894 5895 5895 5895 5895 5895 5894 5893 5893 5893 5892 5892 5893 5892 5893 5893 5893 5894 5894 5894 5895 5895 5896 5898 5901 5904 5908 5909 5910 5912 5914 5916 5918 5921 5922 5924 5926 5928 5929 5930 5932 5934 5935
5891 5890 5891 5892 5890 5889 5892 5894 5895 5896 5895 5895 5894 5893 5894 5894 5893 5893 5893 5894 5894 5894 5894 5894 5894 5894 5893 5894 5896 5899 5902 5905 5908 5909 5911 5913 5915 5917 5920 5922 5924 5926 5929 5931 5932 5933 5935 5936 5937
5890 5891 5891 5891 5890 5890 5892 5894 5894 5896 5896 5895 5895 5895 5894 5894 5893 5894 5895 5895 5895 5895 5895 5895 5894 5894 5893 5893 5896 5899 5903 5906 5909 5911 5913 5914 5917 5919 5921 5923 5926 5927 5930 5932 5934 5936 5937 5939 5941
5890 5890 5892 5891 5890 5891 5891 5892 5893 5895 5896 5896 5895 5896 5894 5893 5893 5895 5895 5895 5896 5896 5896 5896 5895 5895 5895 5895 5898 5901 5905 5907 5910 5912 5914 5916 5919 5921 5922 5925 5927 5929 5932 5934 5937 5939 5940 5942 5943
5888 5889 5890 5891 5890 5891 5891 5892 5893 5895 5896 5897 5895 5896 5896 5894 5894 5895 5895 5896 5897 5897 5897 5898 5897 5897 5898 5899 5902 5904 5907 5909 5911 5914 5916 5918 5920 5922 5924 5926 5929 5932 5934 5937 5939 5941 5942 5944 5946
5887 5888 5889 5890 5889 5889 5891 5889 5892 5894 5895 5896 5896 5896 5897 5896 5896 5896 5897 5898 5898 5898 5898 5899 5899 5900 5901 5902 5904 5907 5909 5911 5914 5916 5918 5920 5922 5924 5926 5929 5931 5934 5937 5939 5942 5944 5945 5946 5948
5885 5887 5888 5888 5889 5888 5889 5889 5890 5891 5894 5896 5897 5896 5897 5897 5897 5897 5899 5900 5900 5900 5900 5900 5902 5902 5904 5906 5908 5910 5911 5913 5915 5918 5919 5921 5924 5927 5929 5931 5933 5935 5938 5941 5944 5946 5947 5949 5951
5884 5885 5887 5887 5887 5888 5889 5889 5890 5890 5891 5894 5896 5897 5898 5898 5898 5898 5899 5901 5902 5903 5902 5902 5903 5905 5907 5909 5911 5913 5915 5917 5918 5920 5922 5924 5926 5929 5931 5933 5934 5937 5940 5943 5946 5947 5950 5952 5953
5881 5883 5883 5885 5885 5886 5888 5888 5889 5890 5890 5892 5895 5897 5898 5899 5899 5899 5900 5903 5904 5905 5905 5905 5906 5908 5910 5912 5913 5915 5916 5919 5920 5922 5924 5926 5928 5930 5932 5934 5936 5939 5942 5945 5947 5950 5952 5953 5955
5876 5878 5879 5881 5883 5885 5886 5886 5887 5887 5889 5891 5893 5895 5897 5900 5901 5901 5901 5904 5905 5906 5907 5908 5909 5910 5911 5913 5916 5917 5919 5921 5922 5923 5925 5927 5929 5931 5933 5935 5938 5941 5943 5946 5950 5951 5953 5955 5956
5871 5873 5876 5878 5880 5882 5884 5885 5886 5887 5887 5888 5890 5895 5896 5900 5902 5902 5902 5905 5907 5908 5909 5910 5912 5912 5913 5914 5917 5919 5921 5923 5925 5926 5927 5928 5929 5931 5933 5936 5939 5943 5945 5948 5950 5953 5955 5956 5957
5868 5870 5873 5875 5877 5880 5881 5883 5884 5884 5884 5884 5885 5890 5895 5899 5903 5904 5903 5906 5909 5910 5910 5911 5913 5915 5916 5917 5919 5921 5923 5925 5926 5928 5929 5930 5931 5932 5934 5937 5941 5944 5947 5949 5952 5954 5956 5957 5959
5865 5867 5869 5871 5873 5877 5879 5882 5882 5883 5883 5882 5885 5889 5895 5899 5902 5904 5904 5906 5909 5911 5912 5913 5914 5917 5918 5919 5921 5923 5925 5927 5929 5930 5932 5932 5933 5935 5937 5940 5942 5946 5948 5951 5952 5954 5957 5958 5958
5865 5862 5865 5868 5872 5875 5877 5879 5879 5880 5881 5881 5885 5889 5893 5897 5900 5903 5906 5906 5909 5911 5913 5914 5916 5918 5921 5922 5923 5925 5926 5928 5930 5931 5933 5934 5935 5937 5939 5941 5943 5946 5949 5952 5953 5955 5956 5957 5958
5859 5859 5863 5866 5869 5872 5875 5878 5876 5876 5879 5880 5883 5888 5892 5895 5899 5902 5904 5907 5909 5911 5913 5914 5917 5919 5921 5924 5926 5927 5927 5929 5931 5933 5934 5936 5937 5939 5941 5943 5944 5947 5949 5952 5954 5956 5956 5957 5958
5853 5857 5861 5865 5866 5871 5871 5876 5876 5874 5876 5878 5881 5884 5889 5892 5896 5899 5901 5906 5909 5911 5913 5915 5917 5919 5921 5924 5926 5928 5929 5930 5933 5935 5936 5937 5938 5940 5942 5943 5945 5948 5950 5952 5953 5955 5957 5957 5958
5852 5856 5862 5865 5866 5869 5869 5873 5872 5873 5873 5876 5877 5880 5884 5889 5892 5896 5901 5904 5908 5909 5912 5914 5916 5918 5920 5923 5926 5929 5930 5931 5934 5936 5938 5938 5939 5941 5942 5943 5945 5947 5950 5951 5953 5954 5955 5956 5957
5851 5855 5863 5862 5864 5866 5866 5869 5869 5871 5872 5872 5875 5877 5878 5883 5888 5893 5897 5901 5905 5908 5910 5913 5915 5916 5919 5922 5925 5927 5928 5930 5933 5935 5938 5939 5940 5940 5942 5944 5945 5947 5950 5951 5951 5952 5953 5954 5955
5849 5851 5858 5859 5860 5863 5866 5866 5867 5867 5868 5869 5869 5872 5873 5878 5882 5889 5893 5897 5901 5906 5908 5910 5912 5914 5917 5920 5923 5926 5928 5929 5931 5933 5935 5937 5939 5941 5942 5944 5946 5947 5949 5950 5951 5951 5952 5953 5954
5846 5850 5853 5855 5858 5861 5864 5863 5862 5863 5864 5864 5864 5866 5867 5871 5877 5884 5888 5892 5897 5901 5904 5907 5910 5912 5914 5918 5921 5924 5927 5929 5930 5932 5933 5935 5937 5940 5942 5943 5945 5946 5947 5948 5949 5949 5950 5951 5952
5844 5846 5849 5851 5854 5856 5857 5859 5858 5860 5860 5862 5862 5861 5861 5866 5873 5878 5882 5886 5891 5895 5901 5904 5906 5909 5912 5915 5918 5921 5924 5926 5928 5930 5932 5933 5935 5937 5940 5941 5943 5944 5945 5946 5947 5947 5948 5948 5949
5839 5836 5843 5847 5851 5853 5850 5855 5855 5855 5855 5859 5859 5859 5859 5861 5866 5870 5875 5879 5883 5889 5894 5899 5903 5905 5907 5910 5914 5918 5921 5923 5925 5927 5930 5932 5932 5935 5936 5938 5940 5941 5942 5943 5944 5945 5946 5946 5947